Wind_Speed
35 35 35 35 35 34 32 28 23 20 17 14 13 11 10 8 7 8 8 8 7 5 2 3 5 5 4 2 2 2 2 1 3 3 3 4 5 6 5 4 5 8 11 12 10 10 12 13 16 17 17 21 22 21 23 25 24 24 25 26 29 32 35 33 33 36 38 38 38 40 39 38 37 35 36 42 43 36 30 29 31 29 20 15 22 24 23
34 35 35 35 35 34 31 27 23 20 17 13 11 10 9 8 8 9 8 8 8 6 3 3 4 4 3 2 2 2 1 1 1 2 3 3 4 5 4 3 6 8 10 12 12 13 14 15 18 18 20 24 23 21 24 26 25 25 25 27 29 32 37 38 35 35 37 38 38 38 37 37 39 39 41 46 44 38 36 36 35 35 30 25 27 30 25
34 34 35 35 34 33 29 25 22 21 17 13 10 9 9 8 8 9 9 8 8 7 5 4 4 4 3 3 2 2 1 1 2 1 2 3 5 7 7 7 9 10 11 13 15 16 17 18 20 20 23 27 25 23 27 29 29 30 29 30 31 32 36 37 38 39 38 39 42 42 41 40 40 39 41 48 48 40 39 41 40 40 40 37 35 37 33
33 34 35 34 33 32 28 24 21 20 18 13 10 8 9 9 9 9 9 9 8 8 6 5 4 4 4 4 4 3 3 3 3 4 5 6 7 9 10 11 12 14 14 16 18 18 19 21 22 23 25 28 27 28 32 33 34 34 35 35 35 36 37 36 39 41 40 42 45 46 46 46 46 44 42 47 52 49 45 44 44 45 46 44 39 41 41
32 33 34 34 33 31 28 24 20 19 17 14 11 9 9 9 10 11 10 9 9 8 8 6 5 5 5 5 5 5 5 5 5 6 8 9 9 11 13 14 15 16 17 18 19 20 21 22 23 24 25 26 27 29 34 36 37 38 39 40 40 40 39 39 41 42 42 45 48 49 49 49 50 49 46 46 51 53 52 49 47 48 48 47 43 42 43
31 33 33 33 32 30 28 24 20 17 16 15 13 11 11 10 10 11 11 11 11 9 7 6 6 7 7 7 7 7 7 8 8 9 10 11 12 14 15 16 17 18 19 19 20 21 22 22 23 23 23 23 24 26 30 33 35 36 38 41 43 43 42 43 44 44 44 47 50 51 51 50 50 51 49 48 50 53 55 53 51 50 49 48 46 43 44
31 32 33 33 32 30 28 25 20 17 16 15 14 13 12 12 12 12 11 11 11 10 8 6 7 8 8 9 9 9 9 10 11 12 13 14 15 15 16 17 17 18 18 19 19 20 20 20 19 18 16 17 19 19 21 26 29 29 29 33 39 43 44 45 47 48 48 49 51 51 53 53 53 52 50 49 50 53 55 54 52 52 51 50 49 45 45
30 32 33 33 32 30 28 26 22 18 16 16 15 15 14 14 14 13 12 10 9 9 9 8 8 8 9 9 10 11 12 12 13 14 15 15 16 16 16 16 16 17 18 18 18 18 16 14 13 12 12 14 16 16 16 18 21 22 21 22 28 34 39 42 46 50 51 51 52 53 53 55 56 54 53 50 49 52 54 52 53 55 54 53 52 47 44
29 31 32 32 31 29 28 26 23 20 18 16 16 17 17 17 17 15 13 11 9 9 9 9 9 9 9 10 11 12 13 14 15 15 15 15 15 15 15 15 15 16 16 16 16 15 13 12 11 11 12 12 14 15 15 16 18 19 20 19 20 24 31 36 40 46 49 49 50 53 54 57 58 57 55 52 50 53 54 51 54 58 58 57 56 47 40
27 29 30 31 30 29 28 27 25 22 20 19 18 18 18 17 17 17 14 12 10 9 9 9 9 9 10 11 12 13 14 14 15 15 15 15 15 15 14 14 14 14 15 15 15 14 12 12 11 11 11 12 13 13 14 14 16 17 20 21 20 21 25 30 35 41 43 42 44 49 53 57 59 58 56 55 53 53 53 51 53 59 61 59 59 52 44
25 27 28 29 29 28 28 27 26 25 23 21 20 19 18 18 17 17 16 14 12 11 10 10 10 11 13 13 14 15 15 15 15 15 15 15 15 15 14 14 14 14 14 14 15 13 12 11 11 11 11 12 13 13 14 15 16 17 18 20 21 22 23 26 29 33 34 34 36 41 49 56 59 57 56 56 55 54 55 54 55 59 62 61 60 57 51
23 24 26 27 27 27 27 27 27 26 25 23 22 21 20 19 19 18 17 15 14 13 12 12 13 14 14 14 15 15 16 16 16 16 15 15 14 14 13 12 13 13 13 15 15 13 11 10 10 12 12 12 12 13 15 16 16 18 19 19 20 22 24 25 26 28 28 28 29 34 43 50 54 56 57 58 59 61 61 59 58 60 62 61 62 63 58
21 21 23 24 25 26 26 26 27 27 26 25 24 22 21 20 19 18 17 15 15 14 13 13 13 13 13 14 16 16 16 16 15 13 12 12 11 11 11 10 12 12 13 15 13 11 10 8 9 10 11 12 13 14 15 16 17 18 19 20 20 21 24 26 26 26 27 27 28 30 33 38 45 53 57 58 62 65 64 61 59 62 64 63 65 66 63
18 19 20 21 23 24 24 25 25 26 26 26 25 23 22 21 19 19 18 17 16 16 14 14 14 15 17 18 19 18 17 16 14 12 10 10 10 10 10 10 10 11 12 13 9 10 10 9 9 9 10 11 13 13 14 15 17 18 18 19 20 20 21 24 25 26 27 28 29 29 28 30 37 45 50 55 60 64 66 65 64 66 66 66 67 67 65
17 17 17 18 20 21 22 22 23 24 24 25 24 23 22 21 20 20 19 18 18 18 17 16 17 18 19 19 19 19 19 18 16 14 12 11 11 10 10 10 10 10 10 9 6 9 10 10 10 10 10 11 12 14 15 16 18 20 19 18 21 21 20 20 22 25 28 29 29 29 29 28 27 31 41 51 57 62 65 67 67 68 67 66 67 69 67
15 15 16 16 17 18 19 20 21 21 22 22 23 22 21 20 19 18 18 18 19 18 17 16 16 17 17 18 18 19 20 19 18 17 15 15 14 13 12 11 9 8 8 7 6 9 11 12 11 11 12 13 13 14 16 16 17 20 22 21 22 23 22 21 20 23 26 29 30 29 28 26 25 27 34 42 51 58 62 65 67 69 69 68 66 67 69
14 15 15 15 16 17 17 18 18 19 19 20 20 20 19 19 18 17 16 16 17 17 16 15 14 14 15 16 18 19 19 19 18 17 17 17 17 16 16 13 10 9 8 8 7 9 11 11 11 12 13 14 15 16 17 16 15 18 21 22 23 23 23 22 22 22 23 26 30 29 26 26 28 30 30 34 42 50 56 61 67 69 69 70 68 66 67
14 14 14 15 15 16 16 17 17 17 17 18 17 17 17 17 17 16 16 15 15 14 14 14 14 13 14 16 17 18 19 19 18 18 17 17 18 18 17 16 13 11 11 10 9 9 10 11 11 13 14 15 16 17 16 15 15 15 17 19 21 22 21 21 20 20 20 22 27 29 28 27 29 30 29 31 36 42 48 57 66 68 68 68 69 68 67
13 14 14 15 15 16 16 16 17 17 17 17 17 17 16 16 16 16 16 15 15 14 14 14 14 14 14 14 15 16 17 18 18 18 17 17 17 17 18 18 16 14 12 11 9 8 9 10 11 12 13 13 14 15 15 14 14 15 16 17 18 19 19 18 18 18 19 21 23 27 29 29 30 31 31 31 33 38 45 52 59 64 65 64 66 68 69
14 14 14 15 16 16 17 17 17 17 17 17 17 17 17 17 17 16 16 16 15 15 14 14 14 14 14 13 14 14 14 15 16 17 17 17 18 17 17 17 17 16 14 12 9 6 6 7 8 9 9 11 12 14 14 14 14 15 17 18 17 17 16 17 18 18 19 20 21 24 27 28 29 31 33 33 34 36 42 47 53 58 62 62 63 66 69
14 14 15 15 16 17 17 17 18 18 18 18 18 18 18 18 18 18 17 17 16 16 16 15 15 15 14 14 14 13 13 14 15 15 16 17 17 17 17 16 16 16 15 14 11 7 5 6 7 6 7 10 12 14 15 14 14 15 16 17 17 18 17 16 18 20 20 20 20 21 25 28 30 33 35 36 36 35 37 42 47 51 56 59 61 64 67
14 15 15 15 16 17 17 18 18 18 18 18 18 19 19 19 19 19 19 19 18 18 17 17 16 16 15 14 14 14 13 13 14 14 15 16 16 16 17 16 15 15 15 13 12 10 7 6 7 8 9 11 13 14 14 14 14 16 16 16 16 18 17 16 17 20 21 20 20 23 26 27 29 33 37 39 39 37 36 38 41 46 51 54 57 61 65
14 15 15 16 17 17 17 18 19 19 19 19 19 19 19 19 19 20 20 20 20 20 20 19 19 18 17 15 15 15 15 14 14 14 14 14 15 15 16 16 15 15 15 13 12 11 9 8 8 9 11 13 13 14 14 13 14 17 17 16 16 16 16 16 17 20 22 21 23 27 28 27 28 32 36 39 40 40 38 37 39 43 47 50 53 56 60
14 14 15 16 17 17 17 18 19 19 19 19 19 19 20 20 20 20 20 21 21 21 21 21 21 20 19 17 16 16 16 15 15 14 14 14 14 14 14 15 15 15 14 14 13 12 11 10 10 10 12 14 14 13 14 15 15 17 19 19 18 16 15 16 18 20 21 22 24 28 28 28 31 34 35 38 41 42 41 40 39 41 44 48 51 54 57
14 14 15 16 17 17 18 18 18 18 18 19 19 19 20 20 20 21 21 22 22 22 22 22 21 20 20 20 18 17 17 16 15 14 15 14 14 14 14 14 14 14 14 13 12 13 12 11 11 11 13 15 16 14 14 15 16 16 17 19 19 18 17 17 18 19 20 20 23 26 27 28 33 35 36 38 41 42 43 42 41 41 44 46 49 53 57
13 14 15 16 17 17 18 18 18 18 18 18 18 19 19 20 21 21 22 23 23 23 23 23 22 21 21 21 20 19 19 18 16 15 15 15 15 14 14 14 13 13 13 13 12 12 12 12 12 12 12 14 17 16 14 16 17 16 15 17 19 20 20 19 18 19 20 20 20 21 23 27 32 35 36 38 40 41 42 43 43 43 44 45 46 49 55
13 14 15 15 16 16 17 18 18 18 18 18 18 19 19 20 20 21 22 23 23 23 24 24 23 22 20 21 21 20 19 18 17 16 15 15 15 14 14 14 14 13 13 12 12 11 12 12 13 13 13 14 15 15 15 16 19 20 18 17 17 19 20 21 20 19 19 20 20 20 21 24 29 34 36 38 39 40 41 43 44 45 45 46 46 46 50
13 14 14 15 15 16 17 17 18 18 18 18 18 18 19 19 20 20 21 22 22 23 24 25 25 23 21 20 20 19 18 19 19 17 16 16 16 15 15 15 15 15 14 13 12 12 12 12 12 12 14 15 15 16 16 17 19 20 21 21 21 20 20 22 22 21 21 21 22 22 22 22 26 30 33 36 38 40 40 41 43 45 46 47 47 46 48
13 13 14 14 14 16 17 17 18 18 18 18 18 18 19 20 21 21 21 21 22 23 23 24 25 25 23 20 19 19 19 19 19 18 17 16 16 15 15 15 16 16 16 15 14 13 13 13 13 13 14 16 16 16 18 20 21 20 20 22 25 24 21 21 23 23 23 23 23 23 23 23 24 26 29 33 35 37 40 40 41 43 45 47 49 48 48
12 12 13 13 14 15 16 17 18 18 18 18 18 18 18 18 20 22 22 21 21 22 22 22 23 24 24 21 20 21 20 19 19 19 18 17 17 17 16 16 16 16 16 16 16 15 15 15 14 13 15 17 16 16 18 21 22 21 20 21 24 26 25 24 23 22 23 24 23 24 25 24 24 25 27 29 32 34 36 39 40 41 42 44 47 50 50
12 12 13 13 13 14 16 17 18 18 19 19 19 18 18 18 19 20 20 20 21 21 21 22 24 25 24 23 22 21 21 21 21 20 18 19 20 19 18 18 19 18 17 17 17 16 17 17 17 15 15 17 17 17 19 21 22 22 23 23 24 25 26 26 25 24 24 25 24 24 25 24 23 23 25 27 30 31 33 35 36 38 39 39 42 48 51
12 12 13 14 14 15 16 16 17 18 19 19 19 19 19 19 20 20 20 20 21 22 22 24 27 27 25 25 24 22 21 23 23 20 19 20 21 20 19 19 21 21 20 19 19 18 18 18 19 18 18 18 19 18 20 22 21 21 25 27 28 27 26 26 27 26 25 26 25 24 24 24 22 21 22 24 26 29 31 32 33 34 36 37 36 41 48
12 13 14 15 15 16 16 17 18 18 19 20 19 19 19 20 20 20 21 21 21 22 24 27 30 30 28 29 28 25 24 25 24 22 20 21 22 21 20 19 20 21 21 20 19 18 18 18 19 19 19 19 19 19 20 23 22 21 24 28 30 31 31 29 28 27 26 26 27 25 24 24 23 22 21 22 24 25 26 29 31 31 33 34 32 33 40
12 14 15 15 16 16 16 17 18 18 19 20 20 19 20 21 20 20 21 21 21 22 24 27 30 31 31 32 30 27 26 26 24 22 22 21 21 22 21 20 20 21 21 21 20 18 18 19 19 19 20 20 20 19 20 23 22 21 24 28 30 32 32 32 31 29 27 26 27 26 25 24 23 22 20 19 21 22 22 23 27 29 30 30 30 29 33
13 14 15 16 17 17 17 17 18 19 19 20 20 20 21 21 20 20 21 22 23 23 24 27 29 30 32 33 32 30 28 27 24 22 22 21 21 22 23 22 21 22 21 21 20 19 19 19 19 19 19 20 20 19 20 22 22 22 25 30 31 31 31 32 32 31 29 28 27 27 27 25 24 23 21 18 17 19 20 20 22 25 25 25 26 27 30
13 14 15 16 16 17 17 17 18 18 19 19 19 20 20 21 21 22 23 23 24 24 26 28 30 31 33 35 34 31 28 26 25 24 23 23 23 23 23 23 23 22 21 20 20 20 20 19 19 19 18 19 18 18 19 21 22 23 27 30 32 31 30 30 31 30 30 28 27 27 28 27 26 25 24 20 16 16 17 18 19 22 23 22 23 25 28
13 14 14 15 16 17 17 18 18 19 20 19 19 20 20 21 21 22 24 25 25 25 27 30 32 33 34 35 35 32 28 27 26 26 25 24 23 24 25 25 24 22 21 20 19 18 18 18 19 19 19 18 16 15 17 20 22 24 27 29 30 30 29 28 29 29 29 29 28 27 28 28 27 26 25 23 19 15 14 15 17 19 22 23 23 24 27
13 13 13 15 16 16 16 17 18 20 21 21 21 21 21 21 22 23 24 26 25 25 26 30 33 34 33 33 32 31 28 27 27 27 27 25 24 26 27 26 24 22 21 18 16 16 17 18 19 19 18 16 15 16 19 21 22 24 27 28 28 27 27 27 28 29 29 29 29 28 28 28 27 25 24 24 21 16 11 12 14 17 21 24 24 24 27
12 13 13 14 16 17 18 18 18 19 20 21 21 21 20 21 23 24 24 25 25 25 26 29 33 34 33 31 30 29 27 27 28 29 27 26 25 27 27 25 21 19 18 17 16 17 19 19 18 18 17 17 18 21 23 23 23 24 26 27 26 26 26 26 26 28 28 29 29 28 28 27 26 24 23 23 21 16 10 9 11 14 17 22 23 24 27
13 14 14 15 16 17 19 20 20 20 21 21 21 21 21 22 23 24 24 25 27 27 27 29 32 33 33 31 29 28 27 28 30 30 27 26 27 27 26 23 20 19 21 21 20 19 19 19 20 20 19 19 21 23 24 23 23 25 25 25 25 25 25 25 26 27 28 28 28 28 27 27 26 24 22 21 20 17 10 6 7 9 12 18 23 25 27
13 15 16 17 17 18 20 21 22 23 23 23 22 22 22 22 23 23 24 27 30 30 30 31 32 33 34 32 28 26 27 29 30 29 27 26 26 26 24 23 23 24 24 23 20 18 19 21 21 20 20 20 21 21 21 22 22 23 23 24 25 25 25 26 27 28 28 27 26 27 27 25 25 24 22 20 20 17 10 4 4 4 7 14 21 25 27
14 16 18 19 20 20 20 21 22 23 23 23 23 22 22 22 24 25 26 29 32 32 32 33 33 33 33 30 27 27 30 31 29 28 26 25 24 24 23 23 24 24 22 20 18 19 21 21 19 18 19 20 19 19 19 20 20 20 21 24 26 26 27 28 27 27 27 26 24 25 26 25 23 23 22 20 19 17 12 5 4 4 4 9 17 24 27
15 17 19 20 21 21 21 21 22 23 23 22 22 22 22 23 25 27 28 31 31 31 32 34 34 32 31 29 27 29 31 31 29 27 25 23 22 22 22 21 20 20 20 20 20 20 20 18 16 17 18 18 17 18 19 19 19 19 21 25 27 28 28 28 26 26 27 26 23 23 25 25 22 21 21 20 18 16 13 8 4 5 6 6 11 19 26
16 18 19 20 21 21 21 21 22 23 24 23 22 21 22 24 26 28 30 31 31 32 34 34 32 32 32 31 31 31 31 30 27 25 22 21 21 21 20 19 18 18 19 19 18 18 17 16 16 18 18 18 18 19 19 19 19 20 22 25 28 28 27 26 25 25 26 26 23 22 24 25 23 20 20 19 17 15 13 9 5 5 8 9 9 13 22
17 18 19 20 21 22 23 23 23 22 23 24 23 22 23 25 26 28 30 30 31 34 34 31 29 31 34 34 33 32 30 27 25 24 22 20 19 19 20 18 17 17 18 18 17 17 17 17 19 20 19 19 19 20 19 19 20 21 23 26 27 27 25 24 24 24 25 25 23 22 24 25 23 20 19 19 17 15 13 10 7 5 8 11 10 8 13
17 18 18 19 21 22 23 24 24 23 22 23 24 24 25 25 25 28 31 31 31 32 32 30 30 33 35 33 32 30 28 26 26 25 24 21 19 21 23 22 21 21 22 21 19 18 18 19 22 22 20 20 21 21 21 21 22 22 24 27 27 25 23 23 23 23 23 25 24 23 24 25 23 20 19 18 17 15 13 11 10 7 7 12 12 11 12
18 19 19 19 20 22 23 23 23 21 21 22 24 26 25 24 26 30 32 31 30 33 34 33 33 35 34 32 31 29 27 27 27 26 24 23 23 24 25 24 23 24 24 23 21 20 20 20 21 21 22 23 25 25 24 24 24 25 26 28 27 25 23 22 22 22 23 25 26 25 25 24 21 19 17 17 17 15 13 12 12 9 7 10 12 13 14
18 19 19 19 21 22 23 23 22 20 20 22 24 25 25 26 29 31 30 29 32 36 36 34 34 35 34 32 31 28 27 27 26 25 25 25 23 22 23 23 23 23 23 23 23 22 21 21 21 21 22 25 28 29 28 28 28 28 28 29 27 24 23 22 22 22 23 26 27 26 24 21 19 17 16 16 16 15 12 11 12 11 9 9 10 13 13
19 19 19 19 20 21 22 21 21 20 21 24 24 24 26 28 30 29 28 30 34 36 35 34 34 35 33 31 30 29 27 26 25 25 25 24 22 22 23 24 22 21 21 21 23 24 24 24 23 23 23 25 28 30 30 30 30 29 28 27 26 24 23 22 22 21 23 26 26 24 22 19 17 16 15 14 15 14 13 11 11 11 11 10 10 12 13
19 20 19 19 19 19 20 20 20 21 22 24 24 24 26 30 31 29 29 33 36 36 34 34 35 34 31 30 29 28 26 25 25 26 26 24 23 23 24 24 24 23 23 22 23 25 25 25 24 24 23 24 26 29 30 30 29 29 28 26 25 24 24 23 21 20 21 23 24 22 19 17 16 15 14 14 14 14 13 11 10 10 11 11 12 12 12
18 19 20 19 18 18 19 20 20 21 22 23 24 25 27 29 29 28 30 33 35 35 34 34 33 31 29 29 29 27 25 25 26 27 27 25 24 24 25 25 26 26 26 25 26 26 26 25 24 24 24 24 24 26 28 28 27 28 27 25 24 23 23 22 20 18 18 19 20 19 17 15 15 15 14 13 13 13 14 12 10 9 10 12 13 12 11
18 19 19 18 18 18 19 19 20 21 23 24 25 26 27 28 28 29 31 34 34 33 33 33 32 30 29 28 28 27 26 26 27 28 28 28 28 28 28 28 28 28 28 28 29 28 28 27 27 26 26 25 23 24 26 27 27 26 26 24 22 22 22 20 18 16 15 16 18 18 17 15 14 14 14 13 12 12 13 13 11 9 9 11 13 14 12
Wind_Direction
353 353 352 352 350 348 348 349 352 354 354 355 356 0 4 4 16 29 30 32 30 26 49 81 76 67 63 59 41 56 83 159 167 150 171 202 222 233 234 234 237 241 250 259 263 263 268 266 258 259 261 258 255 254 253 252 249 245 242 239 236 236 236 227 219 215 211 214 221 220 216 208 201 199 194 194 195 197 205 212 208 202 189 196 211 192 173
355 354 354 353 351 350 350 351 353 355 354 352 353 1 2 0 12 14 12 22 17 356 355 31 40 38 30 23 12 4 22 220 197 160 179 217 246 258 267 262 249 249 257 269 274 269 267 266 263 265 267 266 263 261 263 262 255 249 246 242 236 235 238 233 226 222 218 218 221 223 223 216 207 201 193 191 194 199 207 208 205 200 183 179 198 190 176
356 356 356 355 353 351 351 352 354 357 356 350 350 357 357 357 3 2 360 0 351 345 357 355 355 7 350 332 329 309 285 241 239 242 245 262 276 280 287 288 280 276 277 279 278 274 274 274 272 271 272 273 273 270 269 268 263 257 252 248 242 237 239 237 232 226 221 220 221 221 222 221 218 214 201 194 195 202 208 205 199 196 185 181 190 184 180
358 357 357 356 355 353 353 354 355 358 359 354 346 345 347 350 349 347 350 349 337 332 330 322 330 341 323 308 300 290 283 269 263 270 274 281 287 288 290 291 289 288 284 282 282 280 279 278 277 276 275 277 277 271 270 269 265 262 259 254 249 244 241 239 236 232 225 223 224 224 225 226 224 222 212 202 199 203 206 204 200 198 188 181 185 182 184
359 359 359 358 357 355 355 356 356 358 1 359 352 344 339 339 337 335 337 340 336 321 302 303 327 326 311 307 303 292 284 283 283 282 283 289 292 292 292 290 288 288 286 284 283 281 279 278 278 277 275 275 273 269 268 267 264 264 262 257 254 249 245 241 239 236 230 227 226 226 226 228 228 225 219 210 206 206 207 204 202 202 194 183 183 185 190
0 0 0 359 358 358 358 359 358 358 1 0 358 354 346 338 333 332 331 334 340 332 308 306 325 323 316 312 304 295 290 292 295 293 292 294 295 294 294 292 290 288 286 285 284 282 281 281 280 278 275 272 270 269 269 267 265 264 263 260 256 251 248 246 242 237 232 230 229 227 227 228 230 229 224 216 210 210 213 209 204 204 200 189 186 190 193
1 1 2 1 0 1 1 2 1 360 1 2 360 356 351 343 335 329 326 328 335 340 335 328 327 325 322 317 312 308 304 304 305 302 299 298 297 296 294 292 290 290 289 288 287 286 286 284 280 278 275 270 269 271 273 273 271 270 269 266 261 254 250 248 246 240 235 232 230 229 228 227 228 230 230 224 216 214 216 214 209 208 204 194 190 192 196
3 3 4 4 2 3 5 7 6 5 5 8 8 6 4 0 351 338 331 329 332 336 337 332 326 324 321 317 316 313 310 310 310 306 303 300 298 295 294 294 293 294 293 292 293 294 290 281 273 272 274 274 273 275 279 282 281 281 284 280 271 262 255 251 248 243 239 236 233 229 228 228 226 227 229 230 225 220 219 217 214 213 208 198 194 197 204
5 5 7 6 5 6 9 11 12 12 12 14 17 18 17 15 12 4 351 340 333 330 332 333 331 328 322 318 317 316 315 313 309 306 303 300 298 297 297 298 299 298 299 299 299 298 286 266 260 272 279 280 281 282 284 288 288 287 288 290 287 277 264 257 253 246 241 240 236 231 227 227 226 225 225 227 228 225 222 217 214 214 212 203 198 202 211
7 8 10 9 8 10 13 15 18 19 19 20 20 20 20 20 22 20 14 5 356 351 350 345 338 332 328 326 325 322 319 315 310 308 306 302 300 300 300 301 301 301 303 301 297 292 277 259 260 276 283 281 283 285 286 289 289 287 285 284 286 284 273 262 257 251 246 244 241 235 229 226 224 223 223 224 226 228 226 219 213 214 214 208 202 205 215
9 12 14 12 11 14 17 19 23 25 26 26 25 24 24 25 28 29 28 27 23 17 9 358 349 346 342 337 333 328 323 318 314 311 310 306 305 305 303 301 301 302 303 299 292 281 268 259 261 272 280 281 282 282 284 288 288 285 283 279 276 277 275 267 258 253 248 244 243 239 233 228 223 220 221 222 222 223 224 220 215 214 216 211 204 208 217
10 14 16 15 14 16 19 22 25 29 31 31 31 31 30 29 31 30 28 25 20 14 7 359 355 352 345 340 337 331 326 322 317 314 312 311 308 307 303 300 301 303 304 299 287 269 258 261 263 265 273 283 287 287 286 288 288 282 278 276 272 269 268 266 261 254 245 239 239 240 237 234 227 220 218 220 221 220 220 219 216 214 216 214 208 209 216
10 15 17 16 16 17 20 23 26 29 32 33 33 34 34 32 31 28 24 19 14 12 9 5 1 359 357 357 354 348 342 334 328 325 323 321 319 316 310 306 306 307 309 305 285 252 244 261 267 268 275 283 289 292 293 293 291 285 278 276 274 269 265 263 259 253 245 240 242 244 239 235 231 223 218 219 223 224 222 221 220 216 216 217 214 213 213
9 14 16 15 15 17 19 22 26 29 32 33 33 33 32 31 30 27 24 20 17 17 18 17 16 16 14 11 7 4 1 357 353 352 351 349 343 334 325 317 314 315 319 315 281 233 236 262 275 281 286 287 290 297 303 304 297 289 281 277 278 278 272 265 257 251 247 245 247 249 241 233 230 225 219 219 223 225 223 221 221 220 218 218 218 217 215
6 10 12 13 13 14 16 20 24 28 31 33 34 33 31 30 29 28 26 23 21 21 21 21 22 20 16 12 10 10 12 14 15 14 12 6 358 351 343 331 323 324 326 319 267 227 241 265 276 283 289 293 299 306 313 315 307 295 287 279 275 276 278 274 262 252 249 248 249 250 244 235 229 224 220 219 222 225 224 222 223 223 222 221 221 220 218
3 5 7 10 9 9 12 16 20 24 28 31 33 32 31 29 28 28 26 25 24 22 20 20 21 19 14 11 11 11 13 17 21 21 19 14 8 2 357 344 330 325 321 309 271 244 251 266 276 281 285 291 301 308 311 310 305 298 294 287 278 273 274 277 271 257 251 250 250 249 244 234 227 224 222 220 221 225 226 224 225 226 225 225 224 222 220
359 360 1 4 4 2 4 8 12 16 20 24 28 29 28 26 24 23 21 21 21 20 18 17 16 14 14 12 12 12 11 12 16 19 19 18 15 9 4 356 343 326 313 303 288 273 271 277 283 285 287 292 300 306 307 303 298 297 294 291 287 279 273 274 271 261 253 252 249 247 242 233 228 227 226 223 223 225 227 226 225 226 227 227 226 224 222
354 354 355 359 359 355 356 360 2 5 9 13 17 19 20 20 19 17 15 12 11 11 11 12 10 10 12 11 12 12 10 7 9 13 15 15 15 12 9 5 358 341 320 304 290 281 281 285 291 294 295 298 302 304 303 299 295 296 294 291 292 288 277 273 269 259 253 253 249 245 243 236 230 230 230 226 224 225 227 228 226 225 228 228 227 226 225
350 349 350 355 354 351 351 353 354 356 360 3 5 7 9 9 9 9 8 6 4 0 358 359 1 4 5 4 5 8 8 5 6 9 11 12 12 11 10 9 7 358 343 326 306 292 289 292 298 303 306 308 307 305 303 299 296 296 295 293 294 292 282 273 267 254 248 251 249 244 244 239 233 233 231 225 225 228 230 229 227 226 228 229 228 227 226
345 344 346 351 351 348 348 350 350 351 354 356 358 359 359 359 359 359 358 359 358 354 351 350 350 352 353 355 357 358 360 1 2 4 9 10 9 9 9 9 9 7 3 357 345 327 318 321 322 322 324 325 322 316 312 309 304 299 298 297 296 293 284 272 264 255 247 247 247 244 242 238 234 235 233 228 231 235 234 230 228 228 228 229 229 228 227
342 340 342 347 347 345 346 347 347 349 352 354 355 356 355 355 354 352 351 351 351 348 347 346 344 342 342 344 345 345 348 352 354 358 4 6 5 5 6 7 8 9 10 13 13 7 3 7 7 0 346 337 333 329 322 319 318 313 306 301 297 292 285 273 263 258 252 248 247 246 244 239 235 235 236 236 239 241 237 233 231 230 230 229 228 228 227
338 338 340 344 343 341 344 344 344 346 349 352 354 354 354 354 352 349 348 346 346 345 344 343 340 337 335 335 334 335 339 341 342 346 353 359 359 359 0 2 4 6 8 13 19 20 23 28 24 16 2 350 346 344 339 333 333 331 323 314 305 297 291 282 270 264 260 255 249 246 245 242 240 237 236 239 242 242 241 238 235 233 231 229 228 228 228
336 336 339 341 339 339 342 342 342 343 346 349 351 352 353 352 351 350 347 345 344 343 342 340 338 335 334 331 327 327 331 332 331 333 340 347 349 350 353 355 358 0 1 2 7 13 18 21 18 11 4 358 356 359 360 353 344 344 344 336 324 309 296 288 279 271 267 263 255 251 249 248 248 244 238 238 240 242 243 242 239 235 232 229 227 226 226
333 335 338 339 338 340 343 342 341 342 344 346 349 350 351 352 351 349 348 345 343 342 340 339 337 333 332 331 325 321 322 324 323 325 329 332 334 338 342 347 351 353 353 354 357 359 2 5 4 2 2 0 357 358 2 1 356 355 357 352 338 322 305 293 285 278 273 268 262 259 257 254 251 248 242 239 240 242 243 243 241 237 233 231 229 226 224
331 333 336 337 337 341 344 343 343 344 345 347 349 350 351 353 353 351 350 348 346 343 340 338 336 332 330 329 326 321 320 321 320 319 320 321 322 325 329 334 339 344 345 346 349 352 353 351 348 350 353 357 358 354 354 359 0 358 358 357 350 342 329 312 299 289 282 276 270 266 263 259 256 253 249 245 244 245 245 244 242 238 233 232 232 229 225
328 332 336 337 338 342 345 343 343 346 347 348 349 351 352 354 354 353 353 353 351 349 345 341 339 337 331 328 328 326 323 321 318 313 313 316 317 317 317 316 319 326 334 336 336 341 346 345 344 343 341 346 353 354 350 353 357 355 353 354 354 350 343 335 324 308 295 287 280 274 270 265 261 257 254 252 250 248 247 245 244 240 235 232 233 233 229
325 332 335 336 339 343 343 342 342 345 347 348 350 351 353 355 355 353 353 355 355 354 351 348 347 345 337 329 327 325 321 318 316 313 311 312 314 313 308 304 304 305 313 323 329 332 335 337 339 339 336 337 346 351 349 349 352 352 350 350 350 348 343 341 340 331 318 307 297 287 279 272 266 261 257 255 253 251 249 247 245 243 239 235 234 235 233
323 332 334 334 340 344 342 339 340 342 344 346 349 350 351 353 354 353 353 353 354 356 354 349 348 348 345 337 330 326 322 318 317 316 312 309 312 314 308 302 300 298 299 304 314 322 327 329 331 333 334 335 339 343 344 347 349 349 347 346 346 346 342 339 340 339 336 329 318 304 292 282 275 270 264 260 256 252 250 249 246 244 242 239 237 236 236
324 331 331 333 340 343 341 339 339 340 342 344 346 349 350 350 350 352 353 351 352 354 353 350 347 346 344 341 337 334 330 322 318 320 319 311 308 311 313 310 303 297 296 296 297 303 311 317 324 330 330 329 330 333 336 342 348 348 346 343 343 344 342 340 338 336 335 336 333 323 310 296 287 281 275 269 263 256 251 249 247 245 243 242 240 238 235
326 329 328 330 337 339 339 339 339 340 341 342 344 348 350 348 347 350 351 351 351 353 354 354 352 348 345 342 338 336 335 330 323 321 322 320 313 306 310 320 317 303 294 290 289 293 300 304 309 318 320 319 323 329 332 336 342 346 346 343 342 342 340 338 336 333 331 333 335 333 325 311 297 288 283 278 272 264 255 250 247 246 245 244 242 239 235
325 325 323 327 332 334 335 336 338 340 341 342 343 345 347 347 347 347 349 348 348 350 353 354 353 350 347 344 339 332 329 330 329 322 319 324 324 311 303 312 317 311 301 292 287 289 296 299 298 300 303 308 315 326 334 335 336 341 344 343 342 341 338 335 334 333 331 331 332 333 331 321 304 290 286 284 279 270 259 252 249 247 247 246 243 239 234
323 320 318 323 328 329 330 332 335 339 341 341 342 343 344 345 346 346 348 347 346 347 348 348 348 347 346 346 345 338 328 326 330 326 316 316 320 318 311 308 309 308 303 297 292 290 291 296 297 293 293 297 300 308 324 330 329 334 341 342 341 340 337 334 333 333 332 331 330 329 329 327 316 299 289 287 284 276 264 254 249 248 247 246 244 239 232
319 316 316 321 325 326 326 327 331 337 340 340 340 342 343 345 346 345 346 346 345 344 343 343 345 347 346 346 348 345 336 330 329 328 320 312 309 312 314 312 309 306 299 293 295 295 289 289 294 294 292 291 286 289 310 322 321 325 335 339 338 337 334 332 331 332 331 330 329 328 328 328 325 314 299 289 285 282 271 255 247 246 246 245 243 238 230
316 314 315 320 323 323 323 325 328 333 337 338 338 339 342 344 345 344 343 342 341 342 342 342 345 349 348 345 345 345 341 336 332 328 324 317 308 307 309 309 310 311 303 294 295 297 290 287 291 293 293 291 282 282 302 315 315 318 326 332 333 332 330 328 328 329 329 328 327 327 328 326 325 321 312 296 286 284 279 261 246 243 243 241 238 235 228
314 314 317 320 323 323 324 325 327 331 334 335 336 337 340 343 344 342 340 339 339 340 340 340 343 348 349 346 343 341 339 337 334 329 323 317 312 310 309 307 308 311 307 300 296 295 293 293 293 290 290 293 290 290 300 309 310 314 321 325 328 328 326 325 325 326 327 327 326 326 326 326 324 324 320 310 294 284 280 269 252 243 240 236 232 229 225
314 316 319 322 323 324 325 327 328 329 330 332 334 335 338 341 342 341 339 338 337 337 337 337 337 340 344 344 341 337 336 336 335 331 325 319 315 314 311 307 305 308 309 303 297 295 296 298 296 289 287 293 297 300 304 306 307 312 319 322 324 324 323 322 322 322 324 326 326 326 326 325 325 324 323 320 310 291 278 270 257 244 238 233 228 225 222
315 318 323 325 324 325 328 329 328 328 330 332 333 334 335 338 340 340 338 336 334 333 333 335 334 333 336 339 338 334 334 336 335 332 329 324 316 311 309 306 304 308 309 302 296 297 301 303 300 295 290 290 295 305 312 310 306 310 316 320 321 321 321 320 320 320 321 324 325 326 326 325 324 323 322 323 320 306 283 268 256 244 235 231 227 223 219
316 322 326 327 326 326 329 330 329 329 331 332 332 333 333 333 335 339 338 335 333 331 330 333 335 333 332 334 336 334 332 332 331 330 330 325 314 308 308 304 301 308 313 305 294 301 309 307 302 299 293 286 287 304 318 318 312 311 316 319 320 320 320 321 321 321 322 324 325 324 323 323 323 321 319 320 321 316 293 268 256 246 237 231 226 221 217
317 323 326 327 327 327 329 330 330 330 331 332 331 330 330 329 330 334 337 336 334 332 331 333 335 335 333 333 335 335 333 331 330 329 326 322 316 313 310 305 301 311 322 314 299 302 310 308 304 302 298 290 292 305 317 321 318 316 318 320 319 320 321 323 324 324 324 325 324 322 320 319 320 319 318 318 319 319 306 271 256 251 240 231 224 219 215
317 320 322 325 326 327 328 329 331 332 333 334 332 329 330 331 331 331 334 336 335 333 332 334 336 337 337 335 334 334 333 331 330 326 322 320 319 317 314 310 309 315 321 315 302 301 308 309 304 302 300 298 301 309 315 319 320 319 319 320 320 320 321 323 324 326 326 327 326 323 320 318 319 319 318 317 317 319 315 273 249 251 242 231 224 219 215
316 316 318 321 324 326 328 329 332 334 334 334 333 330 329 332 333 331 332 335 336 335 335 336 338 338 337 336 334 332 331 329 327 324 322 321 319 316 313 314 315 315 316 312 302 299 305 308 305 302 301 301 304 309 312 316 319 319 320 324 325 323 322 323 323 323 323 325 327 326 322 319 318 317 318 317 316 316 314 276 227 231 236 231 225 220 216
315 314 315 318 322 326 329 330 332 333 332 332 332 331 329 330 332 331 331 334 337 336 335 335 337 337 337 335 331 328 329 329 328 325 323 321 318 314 312 312 313 314 316 314 305 301 304 305 302 300 299 300 304 308 310 315 320 321 323 327 328 324 320 318 318 318 317 318 323 326 325 322 318 315 316 317 315 313 310 285 218 187 192 219 225 222 217
314 314 315 317 320 325 329 331 332 332 331 332 332 333 332 332 332 331 332 336 339 338 336 335 336 337 337 335 331 327 328 329 327 325 325 325 322 319 316 315 315 316 317 314 307 304 303 301 300 299 298 299 306 311 313 316 321 324 326 329 329 326 321 318 317 316 313 312 315 324 328 326 321 314 313 315 314 310 306 290 233 185 168 185 216 222 218
314 315 315 317 320 324 328 332 334 332 331 333 334 333 334 335 334 333 334 336 338 339 338 337 335 335 335 335 333 330 330 329 327 327 329 330 330 329 329 326 323 322 323 321 317 312 306 303 304 304 299 298 305 313 316 318 322 327 330 332 332 330 326 322 321 319 315 312 313 319 325 327 323 315 311 313 314 310 302 289 259 196 168 165 188 218 220
315 316 317 319 323 326 329 333 335 333 331 333 333 331 332 335 336 336 336 336 336 337 338 337 334 333 333 332 332 332 332 331 329 329 329 330 334 339 340 334 326 323 327 329 327 320 311 308 309 308 301 297 304 314 319 319 321 326 331 333 334 333 329 327 326 323 318 316 317 318 322 326 324 316 311 310 311 310 302 285 263 218 174 164 165 191 212
315 318 320 322 325 328 330 332 333 331 330 333 335 333 334 337 338 338 338 337 337 337 336 334 333 334 334 334 334 335 334 332 329 328 328 328 330 333 334 331 325 322 322 321 321 318 312 308 309 309 303 297 300 310 318 319 320 323 327 329 331 333 330 327 327 324 319 318 319 319 320 323 322 316 310 307 307 309 304 285 265 241 192 174 170 175 192
316 319 322 326 328 329 330 332 333 332 332 334 335 334 333 334 336 338 340 339 337 336 335 334 334 335 336 337 337 336 334 332 329 326 325 324 323 324 328 330 329 326 322 317 314 314 311 307 306 307 304 300 299 304 311 315 316 319 323 325 327 329 328 327 327 323 317 316 318 318 318 320 320 315 309 304 302 304 302 288 273 257 215 183 175 176 186
318 320 325 330 332 330 330 333 336 336 334 333 335 335 335 335 335 336 338 337 335 335 335 335 334 334 336 339 339 337 336 335 333 330 327 325 324 325 328 329 329 329 326 320 314 312 309 305 303 303 304 303 302 302 304 307 309 313 318 321 321 322 324 325 325 322 316 314 317 319 319 318 318 315 309 300 296 297 297 288 276 264 242 206 181 173 181
320 322 328 333 334 330 329 333 337 337 333 333 334 336 337 337 336 334 334 335 336 336 335 335 336 337 338 340 340 339 339 339 338 336 334 331 329 329 329 328 327 329 328 320 314 312 309 304 304 306 306 304 301 299 300 302 304 309 314 317 316 316 318 320 322 321 317 315 318 321 320 316 316 317 312 301 293 292 293 287 276 267 253 228 199 186 190
322 323 328 334 334 330 329 335 339 337 333 332 333 333 335 336 335 335 336 337 336 335 334 335 337 339 340 340 340 339 340 342 342 340 337 335 332 329 327 325 325 327 325 317 312 312 308 304 305 309 308 303 299 297 297 298 301 306 311 313 311 310 312 316 320 321 318 316 318 322 321 317 317 321 318 306 292 288 288 285 275 268 258 237 218 205 200
324 324 327 333 335 331 329 333 338 338 336 335 334 333 333 334 334 335 337 336 334 333 335 337 338 339 340 341 341 341 341 342 342 341 339 336 332 327 323 321 320 320 318 313 311 311 308 304 304 307 306 303 301 298 295 295 298 303 307 309 308 306 308 313 319 320 319 317 319 322 321 318 318 322 323 314 298 287 285 284 276 265 258 248 235 223 207
325 324 326 332 335 332 329 331 335 338 339 339 336 332 332 333 335 336 336 334 333 335 337 337 338 339 341 342 343 342 340 341 342 341 339 336 333 329 326 322 319 315 313 310 308 306 303 301 301 302 303 302 300 295 292 292 294 298 302 305 305 304 306 312 318 321 320 319 321 323 323 320 318 321 322 318 307 291 283 283 281 269 256 251 245 237 224
Height
5774 5770 5766 5762 5759 5755 5752 5749 5747 5745 5743 5742 5741 5740 5739 5738 5737 5736 5736 5735 5734 5734 5734 5733 5733 5733 5733 5733 5733 5733 5734 5734 5735 5736 5736 5736 5736 5736 5738 5739 5740 5740 5739 5740 5741 5741 5742 5743 5742 5743 5744 5743 5744 5747 5747 5748 5750 5752 5755 5758 5759 5759 5760 5764 5768 5771 5774 5777 5779 5782 5783 5784 5786 5790 5794 5797 5801 5804 5805 5808 5812 5816 5821 5825 5830 5837 5840
5773 5770 5766 5762 5758 5755 5752 5749 5747 5745 5743 5742 5741 5740 5739 5738 5737 5737 5736 5736 5735 5735 5734 5733 5733 5733 5733 5733 5733 5733 5733 5734 5734 5735 5735 5735 5735 5735 5737 5738 5738 5738 5738 5738 5739 5738 5739 5739 5739 5740 5740 5738 5741 5744 5743 5744 5746 5748 5751 5752 5753 5754 5754 5759 5765 5768 5771 5774 5776 5778 5778 5778 5780 5784 5787 5789 5793 5795 5797 5801 5806 5811 5816 5819 5823 5829 5833
5773 5770 5766 5762 5758 5755 5752 5749 5747 5745 5743 5742 5741 5740 5739 5738 5737 5737 5737 5736 5736 5735 5734 5734 5733 5733 5733 5733 5733 5733 5733 5733 5733 5734 5734 5734 5734 5734 5735 5735 5735 5735 5736 5736 5736 5735 5735 5736 5736 5736 5735 5733 5738 5741 5739 5739 5741 5743 5744 5746 5748 5750 5750 5754 5759 5762 5766 5769 5770 5770 5770 5772 5777 5782 5785 5786 5786 5785 5787 5793 5800 5804 5807 5810 5815 5821 5826
5773 5770 5766 5762 5758 5755 5752 5749 5747 5745 5743 5741 5740 5740 5739 5738 5737 5737 5737 5736 5736 5735 5734 5734 5733 5733 5733 5732 5732 5732 5732 5732 5733 5733 5733 5733 5733 5732 5732 5732 5732 5732 5732 5732 5732 5732 5732 5732 5732 5732 5731 5731 5734 5735 5733 5733 5735 5737 5738 5740 5742 5744 5747 5750 5752 5755 5761 5763 5763 5764 5766 5768 5772 5776 5780 5782 5782 5782 5785 5792 5796 5797 5800 5805 5810 5815 5818
5773 5770 5766 5762 5759 5755 5752 5749 5747 5745 5743 5742 5740 5739 5738 5738 5737 5736 5736 5736 5735 5735 5734 5733 5733 5732 5732 5732 5732 5731 5731 5731 5731 5731 5731 5731 5730 5730 5729 5729 5729 5729 5729 5729 5729 5729 5729 5729 5729 5729 5728 5728 5729 5729 5728 5728 5730 5731 5731 5732 5734 5737 5741 5744 5745 5749 5754 5755 5755 5757 5759 5761 5764 5768 5774 5779 5782 5783 5786 5788 5790 5792 5797 5802 5805 5808 5809
5773 5770 5766 5762 5759 5756 5752 5750 5747 5745 5743 5742 5740 5739 5738 5737 5736 5735 5735 5734 5734 5734 5733 5732 5732 5732 5731 5731 5731 5730 5730 5730 5729 5729 5729 5728 5728 5727 5727 5726 5726 5726 5726 5726 5725 5725 5725 5725 5725 5724 5725 5725 5724 5724 5723 5723 5725 5725 5724 5724 5726 5730 5734 5736 5736 5740 5744 5745 5747 5750 5752 5755 5759 5762 5767 5773 5777 5779 5780 5782 5785 5789 5795 5799 5801 5804 5806
5774 5770 5766 5763 5760 5756 5753 5750 5747 5745 5743 5742 5740 5739 5738 5737 5736 5735 5734 5734 5733 5733 5732 5732 5732 5731 5731 5730 5730 5729 5729 5728 5728 5727 5727 5726 5726 5725 5724 5724 5724 5723 5723 5722 5722 5722 5721 5721 5721 5720 5721 5721 5721 5721 5720 5719 5719 5720 5719 5719 5720 5723 5726 5726 5726 5731 5735 5737 5740 5743 5746 5749 5752 5756 5761 5766 5771 5774 5775 5780 5784 5786 5791 5797 5798 5801 5803
5774 5770 5767 5763 5760 5757 5754 5750 5747 5745 5743 5742 5740 5739 5737 5736 5735 5734 5733 5733 5733 5732 5732 5732 5732 5731 5731 5730 5729 5728 5727 5727 5726 5725 5725 5724 5723 5723 5722 5721 5721 5720 5720 5719 5719 5718 5718 5718 5718 5718 5718 5717 5717 5717 5717 5716 5715 5715 5715 5715 5715 5717 5718 5718 5718 5722 5726 5729 5732 5736 5739 5741 5744 5750 5755 5760 5767 5770 5772 5777 5782 5784 5789 5792 5792 5794 5795
5774 5771 5767 5764 5761 5758 5755 5751 5748 5746 5743 5742 5740 5738 5737 5736 5734 5733 5732 5732 5732 5732 5732 5731 5731 5730 5730 5729 5728 5727 5726 5725 5724 5723 5722 5722 5721 5720 5719 5718 5718 5717 5717 5716 5716 5715 5715 5715 5715 5715 5715 5715 5715 5714 5714 5713 5712 5712 5711 5711 5712 5712 5711 5712 5712 5714 5718 5721 5722 5726 5730 5732 5736 5743 5748 5753 5758 5762 5765 5771 5776 5779 5783 5785 5786 5788 5787
5775 5771 5768 5765 5762 5759 5756 5753 5749 5746 5744 5742 5740 5739 5738 5736 5735 5734 5733 5732 5732 5732 5731 5731 5730 5729 5729 5727 5726 5725 5724 5723 5722 5721 5720 5719 5718 5717 5717 5716 5715 5714 5714 5714 5713 5713 5713 5713 5713 5713 5713 5712 5712 5711 5711 5710 5710 5709 5708 5708 5709 5708 5707 5707 5706 5707 5712 5714 5713 5716 5719 5720 5726 5736 5743 5747 5751 5756 5761 5766 5770 5774 5776 5779 5783 5784 5780
5775 5772 5769 5766 5764 5761 5757 5754 5751 5748 5745 5743 5741 5740 5738 5737 5736 5735 5734 5733 5732 5732 5731 5730 5730 5729 5727 5726 5725 5724 5722 5721 5720 5718 5717 5716 5715 5714 5714 5713 5712 5712 5712 5711 5711 5711 5710 5710 5711 5711 5710 5710 5709 5709 5708 5708 5707 5706 5706 5705 5705 5705 5704 5703 5702 5703 5706 5707 5706 5707 5708 5711 5721 5733 5739 5741 5744 5747 5750 5755 5761 5765 5767 5771 5777 5775 5769
5775 5772 5770 5767 5765 5762 5759 5756 5753 5750 5747 5744 5743 5741 5740 5738 5737 5736 5735 5734 5733 5732 5731 5730 5729 5728 5727 5726 5724 5722 5721 5719 5717 5716 5715 5714 5713 5712 5711 5711 5710 5710 5710 5709 5708 5708 5708 5708 5708 5708 5708 5708 5707 5706 5705 5704 5704 5703 5702 5702 5701 5701 5700 5699 5699 5700 5701 5702 5701 5700 5702 5708 5718 5727 5731 5732 5731 5732 5736 5745 5752 5755 5756 5760 5763 5759 5758
5775 5773 5770 5768 5766 5763 5760 5757 5754 5752 5749 5746 5744 5743 5741 5740 5738 5737 5737 5736 5734 5733 5732 5731 5729 5728 5727 5725 5723 5721 5719 5717 5715 5714 5713 5712 5711 5710 5709 5709 5708 5708 5707 5706 5705 5705 5706 5706 5706 5706 5706 5705 5705 5704 5703 5702 5701 5700 5699 5698 5697 5697 5696 5695 5696 5696 5697 5697 5696 5696 5700 5706 5711 5717 5723 5724 5723 5724 5732 5741 5746 5746 5747 5751 5751 5750 5754
5775 5773 5771 5769 5767 5765 5762 5759 5756 5753 5751 5748 5746 5744 5743 5741 5740 5739 5738 5736 5735 5734 5732 5731 5730 5728 5726 5724 5723 5721 5719 5716 5714 5713 5712 5710 5709 5708 5708 5707 5706 5706 5705 5703 5703 5703 5704 5704 5704 5704 5703 5703 5702 5701 5700 5699 5698 5697 5696 5695 5694 5693 5692 5692 5692 5692 5693 5693 5693 5694 5697 5700 5703 5709 5714 5714 5713 5717 5724 5731 5733 5735 5739 5743 5744 5747 5752
5775 5773 5771 5769 5768 5766 5763 5760 5758 5755 5753 5750 5748 5746 5744 5743 5741 5740 5738 5737 5736 5734 5733 5731 5729 5728 5726 5725 5723 5721 5719 5717 5715 5713 5711 5710 5709 5707 5706 5706 5705 5704 5703 5702 5701 5701 5702 5702 5702 5702 5701 5700 5700 5699 5698 5697 5695 5693 5693 5692 5691 5690 5689 5689 5688 5689 5689 5689 5689 5690 5692 5696 5700 5703 5703 5703 5706 5710 5716 5721 5724 5728 5733 5737 5740 5743 5746
5775 5773 5771 5769 5768 5766 5764 5761 5759 5757 5754 5752 5750 5748 5746 5744 5742 5741 5739 5738 5736 5735 5733 5732 5730 5728 5727 5726 5724 5722 5719 5717 5715 5713 5712 5710 5708 5707 5705 5704 5703 5702 5702 5701 5700 5700 5700 5700 5700 5700 5699 5698 5698 5697 5696 5695 5693 5691 5689 5689 5688 5687 5686 5686 5685 5685 5685 5685 5685 5686 5689 5693 5696 5696 5696 5698 5702 5705 5710 5714 5717 5721 5727 5731 5734 5738 5741
5774 5773 5771 5769 5768 5766 5764 5762 5760 5758 5755 5753 5751 5749 5747 5745 5743 5742 5740 5738 5737 5735 5734 5732 5731 5729 5728 5726 5724 5722 5720 5718 5716 5714 5712 5710 5708 5706 5705 5703 5702 5701 5700 5699 5698 5698 5698 5698 5697 5697 5697 5696 5695 5694 5694 5693 5691 5689 5687 5685 5684 5683 5683 5682 5682 5681 5681 5681 5681 5683 5685 5688 5689 5690 5692 5695 5697 5700 5702 5704 5707 5713 5718 5722 5727 5732 5736
5774 5772 5771 5769 5768 5766 5764 5762 5760 5758 5756 5754 5752 5750 5748 5746 5744 5742 5740 5739 5737 5736 5734 5733 5731 5730 5728 5726 5724 5722 5720 5719 5717 5715 5713 5710 5708 5707 5705 5703 5701 5699 5698 5697 5696 5696 5695 5695 5695 5694 5694 5694 5693 5692 5691 5689 5688 5687 5685 5683 5681 5679 5679 5679 5678 5678 5678 5677 5678 5679 5681 5682 5683 5685 5688 5689 5691 5693 5693 5694 5699 5705 5708 5712 5718 5723 5728
5773 5772 5770 5768 5767 5766 5764 5762 5760 5758 5756 5754 5752 5750 5748 5746 5744 5742 5741 5739 5738 5736 5734 5733 5731 5729 5728 5726 5724 5722 5721 5719 5717 5715 5713 5711 5709 5707 5705 5703 5701 5699 5697 5695 5695 5694 5694 5693 5693 5692 5692 5691 5690 5689 5688 5687 5685 5684 5682 5680 5679 5677 5676 5675 5675 5674 5674 5674 5674 5676 5676 5677 5679 5681 5682 5683 5685 5685 5686 5688 5693 5697 5699 5704 5709 5714 5720
5772 5771 5770 5768 5767 5765 5763 5762 5760 5758 5756 5754 5752 5750 5748 5746 5744 5742 5740 5739 5737 5736 5734 5733 5731 5729 5728 5726 5724 5722 5721 5719 5717 5715 5713 5711 5709 5707 5705 5703 5701 5699 5697 5695 5693 5693 5692 5692 5691 5691 5690 5689 5688 5686 5685 5683 5682 5681 5679 5677 5676 5674 5673 5673 5672 5671 5671 5670 5671 5672 5672 5674 5675 5677 5677 5678 5678 5679 5681 5684 5687 5689 5693 5697 5702 5706 5712
5771 5770 5769 5767 5766 5765 5763 5761 5759 5757 5755 5753 5751 5750 5748 5746 5744 5742 5740 5739 5737 5735 5734 5732 5730 5729 5727 5725 5724 5722 5720 5719 5717 5715 5713 5711 5709 5707 5705 5704 5702 5700 5697 5695 5693 5692 5692 5691 5690 5689 5689 5688 5686 5684 5682 5681 5680 5678 5676 5675 5673 5671 5670 5670 5669 5668 5668 5668 5668 5668 5668 5669 5670 5672 5673 5673 5674 5675 5677 5679 5682 5685 5688 5691 5695 5700 5705
5770 5769 5768 5766 5765 5764 5762 5760 5759 5757 5755 5753 5751 5749 5747 5746 5744 5742 5740 5738 5736 5735 5733 5731 5730 5728 5727 5725 5723 5721 5720 5718 5716 5715 5713 5711 5709 5707 5705 5703 5702 5700 5698 5696 5694 5693 5692 5691 5690 5688 5687 5686 5685 5683 5681 5679 5677 5676 5674 5673 5671 5669 5668 5668 5667 5666 5665 5666 5666 5664 5663 5664 5666 5667 5668 5669 5670 5671 5673 5675 5678 5680 5682 5685 5689 5693 5698
5770 5768 5767 5765 5764 5763 5761 5759 5758 5756 5754 5752 5750 5749 5747 5745 5743 5741 5739 5737 5735 5733 5732 5730 5728 5726 5725 5724 5722 5720 5718 5717 5716 5714 5712 5710 5708 5707 5705 5703 5701 5699 5698 5696 5695 5693 5692 5690 5689 5688 5686 5685 5683 5681 5680 5678 5676 5674 5672 5670 5669 5667 5666 5665 5665 5663 5663 5663 5663 5661 5661 5662 5663 5663 5664 5665 5665 5667 5668 5670 5671 5673 5675 5678 5681 5684 5689
5769 5767 5766 5765 5763 5762 5760 5759 5757 5755 5753 5751 5749 5748 5746 5744 5742 5740 5738 5737 5734 5732 5730 5729 5727 5725 5723 5722 5720 5719 5717 5716 5714 5713 5711 5710 5708 5706 5704 5703 5701 5699 5697 5696 5694 5693 5691 5690 5688 5687 5685 5683 5682 5680 5678 5677 5675 5672 5670 5669 5667 5666 5665 5663 5662 5661 5660 5660 5659 5657 5658 5660 5658 5657 5659 5660 5661 5661 5662 5664 5665 5667 5669 5672 5674 5677 5680
5767 5766 5765 5764 5762 5761 5759 5758 5756 5754 5752 5750 5748 5747 5745 5743 5741 5739 5737 5735 5734 5731 5729 5727 5726 5724 5722 5720 5718 5717 5715 5714 5713 5711 5710 5708 5707 5705 5704 5702 5700 5698 5697 5695 5693 5692 5690 5689 5687 5686 5684 5682 5680 5678 5677 5675 5674 5672 5670 5668 5666 5664 5663 5662 5660 5659 5657 5657 5656 5655 5655 5655 5653 5653 5654 5655 5655 5656 5657 5658 5660 5661 5664 5666 5668 5670 5673
5766 5765 5764 5763 5761 5759 5758 5757 5755 5753 5751 5749 5747 5746 5744 5742 5740 5738 5736 5734 5732 5730 5728 5726 5724 5722 5720 5718 5716 5715 5713 5711 5710 5709 5708 5706 5705 5703 5702 5701 5699 5697 5696 5694 5692 5691 5689 5687 5686 5684 5683 5681 5679 5677 5675 5674 5672 5671 5669 5667 5665 5663 5662 5660 5658 5656 5655 5654 5653 5652 5652 5650 5649 5648 5649 5649 5650 5651 5651 5652 5654 5655 5657 5660 5662 5664 5666
5765 5764 5763 5762 5760 5758 5757 5756 5754 5752 5750 5748 5747 5745 5743 5741 5739 5737 5735 5733 5731 5729 5727 5724 5722 5720 5718 5716 5714 5712 5711 5709 5708 5707 5705 5704 5702 5701 5700 5699 5697 5696 5694 5693 5691 5689 5688 5686 5684 5683 5681 5679 5677 5676 5674 5672 5670 5669 5667 5666 5664 5662 5660 5659 5657 5655 5652 5651 5649 5648 5648 5647 5644 5643 5643 5643 5644 5644 5645 5646 5647 5649 5651 5653 5656 5658 5659
5764 5763 5762 5761 5759 5757 5756 5755 5753 5751 5749 5747 5746 5744 5742 5740 5739 5737 5735 5733 5731 5728 5726 5723 5720 5718 5716 5714 5711 5710 5708 5707 5705 5704 5703 5701 5700 5698 5697 5696 5695 5693 5692 5691 5689 5688 5686 5684 5683 5681 5679 5677 5676 5674 5672 5671 5669 5667 5665 5663 5662 5661 5659 5657 5654 5652 5650 5648 5646 5645 5644 5643 5641 5639 5638 5638 5637 5637 5638 5639 5641 5642 5644 5646 5649 5651 5653
5762 5761 5761 5759 5758 5756 5755 5754 5752 5750 5748 5746 5745 5743 5741 5739 5737 5735 5734 5731 5729 5727 5725 5722 5719 5716 5714 5712 5710 5708 5706 5705 5703 5702 5701 5699 5697 5696 5694 5693 5692 5691 5690 5689 5687 5686 5684 5683 5681 5679 5677 5675 5674 5672 5670 5669 5668 5666 5664 5662 5660 5658 5657 5655 5652 5650 5648 5646 5644 5642 5640 5639 5637 5636 5634 5633 5632 5632 5632 5633 5634 5635 5637 5639 5641 5643 5646
5761 5760 5759 5758 5757 5755 5754 5753 5751 5749 5747 5745 5744 5742 5740 5738 5736 5734 5732 5730 5728 5727 5724 5722 5719 5716 5713 5711 5709 5706 5704 5702 5701 5699 5698 5697 5695 5693 5691 5690 5689 5688 5687 5686 5685 5683 5682 5680 5679 5677 5676 5674 5671 5670 5668 5666 5665 5664 5662 5661 5658 5656 5654 5653 5651 5649 5646 5644 5642 5639 5637 5635 5633 5632 5630 5629 5628 5627 5626 5627 5628 5629 5630 5631 5633 5636 5639
5760 5759 5758 5757 5755 5754 5753 5751 5750 5748 5746 5744 5743 5741 5740 5738 5736 5734 5731 5729 5727 5725 5723 5721 5718 5715 5712 5710 5708 5705 5703 5701 5699 5697 5695 5693 5692 5690 5688 5687 5686 5685 5684 5683 5682 5680 5679 5678 5676 5675 5673 5672 5669 5668 5666 5664 5663 5661 5659 5658 5657 5655 5653 5651 5649 5646 5644 5641 5639 5637 5635 5632 5630 5628 5626 5624 5623 5622 5622 5622 5622 5622 5623 5624 5625 5628 5631
5758 5757 5756 5755 5754 5753 5752 5750 5748 5746 5745 5743 5741 5740 5738 5736 5734 5732 5730 5728 5726 5724 5722 5719 5717 5714 5712 5709 5706 5703 5701 5699 5697 5695 5693 5691 5689 5687 5686 5685 5683 5682 5680 5679 5678 5677 5676 5674 5673 5672 5671 5669 5668 5666 5664 5662 5660 5659 5657 5655 5653 5652 5650 5648 5646 5644 5641 5639 5637 5635 5633 5630 5628 5625 5623 5621 5619 5618 5617 5617 5617 5617 5617 5618 5619 5620 5623
5757 5756 5755 5754 5752 5751 5750 5749 5747 5745 5743 5741 5740 5738 5737 5735 5733 5730 5728 5727 5724 5722 5720 5718 5715 5713 5710 5707 5705 5702 5699 5696 5694 5693 5691 5689 5687 5685 5684 5682 5680 5679 5677 5676 5675 5674 5672 5671 5670 5668 5668 5667 5665 5663 5662 5660 5658 5656 5655 5652 5650 5648 5646 5644 5643 5641 5638 5636 5634 5632 5630 5627 5625 5623 5620 5618 5616 5614 5613 5612 5612 5612 5612 5612 5613 5614 5617
5755 5754 5753 5752 5751 5750 5749 5747 5745 5744 5742 5740 5738 5737 5735 5733 5731 5729 5727 5725 5723 5721 5718 5716 5713 5711 5708 5706 5703 5700 5697 5694 5692 5690 5688 5686 5684 5682 5681 5679 5677 5676 5674 5672 5671 5670 5669 5668 5666 5665 5664 5663 5662 5660 5659 5658 5656 5654 5653 5650 5648 5645 5643 5640 5638 5637 5635 5633 5631 5629 5627 5625 5623 5620 5618 5615 5613 5611 5609 5608 5607 5607 5607 5608 5609 5610 5612
5754 5753 5752 5751 5749 5748 5747 5746 5744 5742 5741 5739 5737 5735 5733 5731 5729 5727 5725 5723 5721 5719 5717 5715 5712 5709 5707 5704 5701 5698 5695 5692 5689 5687 5685 5683 5681 5679 5677 5675 5674 5672 5671 5669 5668 5667 5665 5664 5663 5662 5661 5660 5658 5657 5656 5655 5654 5652 5650 5648 5646 5644 5641 5638 5635 5633 5631 5629 5627 5625 5623 5621 5620 5618 5615 5613 5610 5608 5606 5605 5604 5604 5604 5604 5605 5607 5609
5752 5751 5750 5749 5748 5747 5745 5744 5742 5741 5739 5738 5736 5734 5732 5730 5728 5726 5723 5721 5719 5717 5715 5713 5710 5706 5704 5701 5698 5695 5692 5689 5686 5684 5682 5680 5678 5676 5674 5672 5671 5669 5668 5666 5664 5663 5662 5661 5659 5658 5657 5657 5655 5654 5654 5652 5651 5650 5648 5646 5644 5641 5639 5636 5633 5630 5628 5625 5623 5621 5619 5617 5616 5614 5612 5610 5607 5605 5604 5602 5601 5600 5601 5601 5602 5604 5606
5751 5750 5749 5748 5747 5745 5744 5742 5740 5739 5738 5736 5734 5732 5730 5729 5727 5724 5722 5720 5718 5716 5713 5711 5707 5704 5701 5699 5695 5692 5689 5687 5684 5682 5679 5677 5675 5673 5671 5669 5668 5666 5665 5663 5661 5660 5659 5658 5656 5655 5654 5654 5653 5652 5651 5650 5648 5647 5646 5644 5641 5639 5636 5634 5631 5628 5625 5623 5621 5619 5616 5614 5613 5611 5609 5607 5605 5603 5601 5600 5599 5598 5598 5599 5600 5602 5604
5749 5748 5747 5746 5745 5744 5742 5741 5739 5737 5735 5734 5732 5731 5729 5727 5725 5723 5721 5718 5716 5714 5712 5709 5705 5702 5699 5696 5693 5690 5687 5684 5682 5680 5677 5675 5672 5670 5668 5666 5664 5663 5661 5659 5658 5657 5656 5655 5654 5653 5652 5651 5650 5649 5648 5647 5646 5644 5643 5641 5638 5636 5634 5631 5628 5626 5623 5620 5618 5616 5614 5612 5610 5609 5607 5605 5603 5601 5600 5598 5597 5597 5597 5597 5599 5600 5602
5747 5747 5746 5745 5744 5742 5740 5739 5738 5736 5735 5733 5731 5729 5727 5725 5723 5722 5720 5717 5715 5712 5710 5707 5704 5700 5697 5694 5691 5688 5684 5682 5679 5677 5674 5671 5669 5666 5664 5662 5661 5659 5658 5656 5655 5654 5653 5652 5651 5650 5649 5648 5647 5646 5645 5644 5643 5641 5639 5637 5635 5633 5631 5629 5626 5624 5621 5618 5616 5614 5612 5610 5609 5607 5605 5603 5601 5600 5598 5597 5596 5596 5596 5596 5598 5600 5601
5746 5745 5744 5744 5742 5740 5739 5737 5736 5734 5733 5731 5729 5727 5725 5723 5721 5719 5717 5715 5712 5710 5708 5705 5702 5698 5694 5691 5688 5685 5682 5679 5677 5674 5671 5668 5666 5663 5661 5659 5657 5656 5655 5654 5652 5652 5651 5649 5648 5647 5646 5645 5644 5643 5642 5641 5639 5638 5636 5635 5633 5631 5629 5626 5624 5621 5619 5617 5614 5612 5610 5608 5606 5605 5603 5602 5600 5598 5597 5596 5595 5595 5595 5596 5597 5598 5600
5744 5743 5742 5741 5740 5739 5737 5735 5734 5732 5730 5729 5726 5724 5723 5721 5719 5717 5715 5712 5709 5706 5704 5701 5698 5695 5691 5687 5684 5682 5680 5677 5674 5671 5668 5665 5663 5660 5658 5656 5654 5653 5652 5650 5649 5648 5647 5646 5645 5644 5643 5642 5641 5640 5639 5638 5636 5635 5633 5631 5630 5627 5625 5623 5621 5618 5616 5615 5612 5610 5607 5606 5604 5603 5602 5600 5599 5597 5596 5595 5594 5594 5594 5595 5596 5597 5599
5742 5742 5740 5739 5738 5737 5735 5734 5732 5730 5729 5726 5724 5722 5720 5718 5716 5714 5712 5710 5707 5703 5700 5697 5695 5692 5688 5684 5681 5679 5676 5674 5671 5668 5665 5663 5660 5658 5656 5654 5652 5651 5649 5648 5646 5645 5644 5643 5642 5641 5639 5638 5638 5637 5636 5635 5633 5631 5629 5628 5626 5624 5622 5620 5618 5616 5614 5612 5611 5608 5606 5604 5603 5601 5600 5599 5597 5596 5595 5594 5593 5593 5594 5594 5595 5596 5598
5741 5740 5739 5737 5736 5735 5734 5732 5730 5728 5726 5724 5722 5720 5718 5716 5714 5711 5709 5707 5704 5701 5698 5695 5692 5688 5685 5682 5679 5677 5674 5670 5667 5664 5662 5660 5657 5655 5654 5652 5650 5648 5647 5645 5644 5642 5641 5640 5639 5638 5636 5635 5634 5633 5632 5631 5630 5628 5626 5624 5622 5620 5618 5617 5616 5614 5611 5610 5609 5607 5604 5602 5601 5599 5598 5597 5596 5595 5594 5593 5593 5593 5593 5593 5594 5595 5597
5739 5738 5737 5735 5734 5732 5731 5730 5728 5726 5723 5721 5720 5718 5716 5714 5712 5709 5706 5704 5701 5698 5695 5692 5689 5686 5683 5680 5677 5674 5671 5668 5664 5662 5659 5657 5655 5653 5651 5650 5648 5646 5645 5643 5642 5640 5638 5637 5637 5635 5634 5632 5631 5630 5629 5628 5626 5625 5623 5621 5619 5617 5615 5613 5612 5611 5608 5607 5606 5605 5603 5601 5599 5597 5596 5595 5595 5594 5593 5592 5592 5592 5592 5593 5594 5594 5596
5738 5737 5735 5733 5732 5730 5729 5727 5726 5724 5722 5720 5718 5716 5714 5712 5710 5707 5704 5701 5698 5696 5693 5690 5687 5684 5681 5678 5675 5671 5668 5665 5662 5659 5657 5655 5653 5651 5649 5648 5646 5645 5643 5641 5640 5638 5636 5635 5634 5632 5631 5629 5628 5627 5626 5624 5623 5622 5620 5618 5616 5614 5612 5611 5610 5609 5606 5604 5604 5603 5601 5599 5597 5596 5595 5593 5593 5593 5592 5591 5591 5591 5591 5592 5593 5594 5595
5736 5735 5733 5732 5730 5728 5727 5725 5724 5722 5720 5718 5716 5714 5712 5710 5707 5704 5701 5698 5696 5693 5690 5687 5684 5682 5678 5675 5671 5668 5665 5663 5660 5657 5655 5653 5651 5649 5648 5646 5644 5642 5640 5639 5638 5636 5635 5633 5631 5630 5628 5627 5625 5624 5623 5621 5620 5619 5618 5616 5614 5612 5610 5609 5608 5607 5604 5602 5601 5600 5599 5597 5596 5594 5593 5592 5591 5591 5591 5590 5590 5590 5590 5591 5592 5593 5595
5734 5733 5732 5730 5729 5727 5725 5724 5722 5720 5718 5716 5714 5712 5710 5707 5705 5702 5699 5696 5694 5691 5688 5684 5681 5679 5675 5672 5668 5665 5663 5660 5658 5655 5653 5651 5649 5647 5645 5643 5641 5639 5638 5636 5635 5634 5632 5631 5629 5628 5626 5624 5622 5620 5619 5618 5617 5616 5615 5613 5611 5610 5608 5606 5606 5605 5602 5600 5599 5598 5597 5595 5594 5593 5591 5590 5589 5589 5589 5589 5588 5588 5589 5590 5590 5592 5594
5732 5731 5730 5729 5727 5725 5723 5722 5720 5718 5716 5714 5712 5710 5708 5705 5703 5700 5697 5695 5692 5689 5686 5683 5680 5676 5672 5669 5666 5663 5661 5658 5656 5653 5651 5649 5647 5645 5643 5641 5639 5637 5636 5634 5632 5631 5630 5628 5627 5626 5625 5623 5620 5618 5616 5615 5614 5614 5612 5610 5608 5607 5605 5604 5603 5602 5600 5598 5597 5596 5594 5593 5592 5591 5590 5589 5588 5588 5588 5588 5588 5587 5588 5588 5589 5591 5592
5730 5729 5728 5728 5726 5723 5721 5720 5719 5717 5714 5712 5710 5709 5706 5703 5701 5698 5696 5693 5690 5686 5683 5680 5677 5673 5670 5666 5664 5661 5658 5656 5654 5651 5649 5647 5645 5643 5641 5639 5637 5636 5634 5632 5630 5628 5627 5625 5623 5623 5622 5620 5618 5615 5614 5612 5611 5611 5609 5607 5605 5604 5603 5602 5601 5600 5598 5596 5594 5593 5592 5591 5590 5589 5589 5588 5587 5586 5586 5587 5587 5587 5587 5587 5588 5589 5591
5728 5727 5726 5726 5724 5722 5720 5718 5718 5716 5713 5711 5709 5707 5704 5701 5698 5696 5693 5690 5687 5684 5681 5678 5674 5671 5668 5665 5662 5659 5657 5654 5652 5650 5647 5645 5643 5641 5639 5637 5635 5634 5632 5630 5628 5626 5624 5622 5620 5619 5618 5617 5615 5612 5610 5609 5607 5607 5606 5605 5603 5601 5600 5599 5599 5598 5596 5594 5592 5591 5590 5589 5589 5588 5587 5586 5585 5585 5585 5585 5586 5586 5586 5587 5587 5588 5589
5727 5725 5724 5724 5723 5721 5718 5717 5716 5715 5712 5710 5707 5705 5702 5699 5696 5693 5690 5688 5685 5682 5679 5675 5672 5669 5666 5663 5660 5657 5655 5652 5650 5648 5646 5644 5642 5639 5637 5635 5633 5631 5629 5627 5625 5623 5621 5619 5617 5616 5615 5613 5611 5609 5607 5605 5604 5603 5602 5601 5600 5598 5596 5596 5597 5596 5595 5592 5591 5590 5589 5588 5587 5587 5586 5585 5584 5583 5583 5584 5585 5586 5586 5586 5587 5587 5588
5725 5724 5723 5722 5721 5719 5717 5716 5714 5712 5710 5708 5706 5703 5700 5697 5695 5691 5688 5685 5682 5679 5676 5672 5670 5667 5664 5661 5658 5655 5653 5651 5649 5646 5643 5640 5638 5636 5634 5631 5629 5627 5625 5623 5621 5619 5617 5615 5614 5612 5611 5609 5608 5606 5604 5602 5601 5599 5598 5597 5596 5595 5594 5593 5594 5594 5593 5591 5590 5588 5587 5587 5586 5586 5585 5584 5583 5582 5582 5582 5583 5584 5585 5585 5586 5586 5586